Flag for Switzerland Weather past 2 weeks in Einsiedeln, Schwyz, Switzerland

Now
47 °F

Cool.


Feels Like: 47 °F
Forecast: 33 / 59 °F
Wind: 2 mph from Northeast

Location: Altdorf


UV Index: 3 (Moderate)

Visibility: N/A


Pressure: 29.79 "Hg

Humidity: 59%

Dew point: 33 °F

Location of EinsiedelnLocation

Historic Weather in Einsiedeln

°F

Einsiedeln temperature yesterday

Maximum temperature yesterday: 54 °F (at 12:00 PM)
Minimum temperature yesterday: 37 °F (at 7:00 AM)
Average temperature yesterday: 44 °F

Past Weeks' High & Low Weather Summary

 TemperatureHumidityPressure
High67 °F (Apr 11, 5:00 PM)96% (Apr 6, 7:00 AM)30.34 "Hg (Apr 6, 7:00 AM)
Low31 °F (Apr 17, 7:00 AM)37% (Apr 15, 3:00 PM)29.65 "Hg (Apr 4, 4:00 PM)
Average51 °F68%30.08 "Hg
* Reported Apr 4 10:00 AM — Apr 19 10:00 AM, Einsiedeln, Weather by CustomWeather, © 2014

Note: Actual official high and low records may vary slightly from our data, if they occured in-between our weather recording intervals... More about our weather records

Advertising

Historic Weather Conditions — Data for Previous 24 hours

 ConditionsComfort  
Time TempWeatherWind HumidityBarometerVisibility
10:00 AM
Apr 19
42 °FQuite cool.2 mph78%29.83 "HgN/A
9:00 AM40 °FChilly.5 mph86%29.84 "HgN/A
8:00 AM38 °FRain. Overcast.3 mph88%29.85 "Hg4 mi
7:00 AM38 °FChilly.3 mph89%29.85 "HgN/A
6:00 AM39 °FChilly.3 mph86%29.85 "HgN/A
5:00 AM39 °FLight rain. Overcast.1 mph85%29.86 "Hg4 mi
4:00 AM39 °FChilly.8 mph84%29.87 "HgN/A
3:00 AM39 °FChilly.5 mph83%29.89 "HgN/A
2:00 AM39 °FLight rain. Overcast.6 mph90%29.91 "Hg4 mi
1:00 AM39 °FChilly.2 mph87%29.93 "HgN/A
12:00 AM39 °FChilly.1 mph89%29.95 "HgN/A
11:00 PM
Apr 18
39 °FRain. Overcast.6 mph88%29.96 "Hg3 mi
10:00 PM39 °FChilly.5 mph90%29.97 "HgN/A
9:00 PM38 °FChilly.3 mph91%29.98 "HgN/A
8:00 PM39 °FRain. Overcast.6 mph86%29.98 "Hg6 mi
7:00 PM40 °FChilly.15 mph86%29.95 "HgN/A
6:00 PM46 °FCool.14 mph83%29.84 "HgN/A
5:00 PM49 °FCool.2 mph75%29.84 "HgN/A
4:00 PM49 °FCool.2 mph70%29.86 "HgN/A
3:00 PM50 °FCool.6 mph63%29.87 "HgN/A
2:00 PM51 °FOvercast.14 mph62%29.85 "Hg10 mi
1:00 PM53 °FCool.15 mph52%29.86 "HgN/A
12:00 PM54 °FCool.18 mph46%29.85 "HgN/A
Weather by CustomWeather, © 2014

See weather overview